When you browse on this site, cookies collect data to enhance your experience and personalize the content and advertising you see.
Visit our Privacy Policy to learn more. By continuing to use the site, you agree to this use of cookies and data.
  • In Portugal
  • List of Countries
  • For 7 days
  • Water Temperature
  • Weather Map
  • Weather Widgets
  • user-avatar
    Login

    Hourly Weather Malanje

    Today, 29 January, Wednesday

    Time Temperature Precipitation Wind Pressure Humidity
    00:00 +21°C° 0.9 mm 1 mps 665 mmHg 96%
    01:00 +21°C° 0.9 mm 1 mps 665 mmHg 97%
    02:00 +19°C° 1.9 mm 2 mps 665 mmHg 97%
    03:00 +19°C° 1.9 mm 2 mps 665 mmHg 97%
    04:00 +18°C° 1.9 mm 3 mps 665 mmHg 97%
    05:00 +18°C° 0.6 mm 2 mps 665 mmHg 97%
    06:00 +18°C° 0.6 mm 2 mps 665 mmHg 97%
    07:00 +19°C° 0.6 mm 1 mps 666 mmHg 97%
    08:00 +20°C° 0 mm 1 mps 666 mmHg 96%
    09:00 +21°C° 0 mm 1 mps 666 mmHg 94%
    10:00 +21°C° 0 mm 1 mps 667 mmHg 92%
    11:00 +22°C° 0 mm 1 mps 666 mmHg 89%
    12:00 +22°C° 0 mm 1 mps 666 mmHg 87%
    13:00 +23°C° 0 mm 1 mps 665 mmHg 84%
    14:00 +24°C° 0.2 mm 1 mps 665 mmHg 81%
    15:00 +25°C° 0.2 mm 2 mps 665 mmHg 77%
    16:00 +26°C° 0.2 mm 2 mps 664 mmHg 74%
    17:00 +24°C° 0.4 mm 2 mps 664 mmHg 80%
    18:00 +23°C° 0.4 mm 1 mps 664 mmHg 87%
    19:00 +21°C° 0.4 mm 1 mps 664 mmHg 93%
    20:00 +21°C° 0 mm 1 mps 665 mmHg 94%
    21:00 +20°C° 0 mm 1 mps 665 mmHg 94%
    22:00 +18°C° 0 mm 0 mps 666 mmHg 95%
    23:00 +20°C° 0.1 mm 1 mps 666 mmHg 95%

    Tomorrow, 30 January, Thursday

    Time Temperature Precipitation Wind Pressure Humidity
    00:00 +20°C° 0.1 mm 1 mps 666 mmHg 96%
    01:00 +20°C° 0.1 mm 1 mps 666 mmHg 96%
    02:00 +19°C° 0 mm 1 mps 665 mmHg 96%
    03:00 +19°C° 0 mm 1 mps 665 mmHg 97%
    04:00 +19°C° 0 mm 1 mps 665 mmHg 97%
    05:00 +19°C° 0 mm 1 mps 665 mmHg 97%
    06:00 +20°C° 0 mm 1 mps 666 mmHg 96%
    07:00 +20°C° 0 mm 1 mps 666 mmHg 96%
    08:00 +20°C° 0.6 mm 2 mps 667 mmHg 94%
    09:00 +21°C° 0.6 mm 2 mps 667 mmHg 92%
    10:00 +23°C° 0.6 mm 2 mps 667 mmHg 89%
    11:00 +23°C° 0.7 mm 2 mps 667 mmHg 89%
    12:00 +23°C° 0.7 mm 2 mps 666 mmHg 89%
    13:00 +24°C° 0.7 mm 2 mps 666 mmHg 88%
    14:00 +23°C° 0.8 mm 2 mps 666 mmHg 89%
    15:00 +23°C° 0.8 mm 2 mps 665 mmHg 89%
    16:00 +23°C° 0.8 mm 2 mps 665 mmHg 89%
    17:00 +21°C° 0.4 mm 2 mps 665 mmHg 91%
    18:00 +22°C° 0.4 mm 1 mps 665 mmHg 92%
    19:00 +21°C° 0.4 mm 1 mps 665 mmHg 93%
    20:00 +20°C° 0 mm 1 mps 666 mmHg 93%
    21:00 +20°C° 0 mm 1 mps 666 mmHg 93%
    22:00 +20°C° 0 mm 1 mps 666 mmHg 93%
    23:00 +20°C° 0 mm 1 mps 666 mmHg 94%

    Day after tomorrow, 31 January, Friday

    Time Temperature Precipitation Wind Pressure Humidity
    00:00 +20°C° 0 mm 1 mps 666 mmHg 94%
    01:00 +18°C° 0 mm 2 mps 665 mmHg 94%
    02:00 +19°C° 0 mm 1 mps 665 mmHg 95%
    03:00 +19°C° 0 mm 1 mps 665 mmHg 96%
    04:00 +19°C° 0 mm 1 mps 665 mmHg 98%
    05:00 +19°C° 0 mm 1 mps 665 mmHg 97%
    06:00 +20°C° 0 mm 1 mps 666 mmHg 96%
    07:00 +20°C° 0 mm 1 mps 666 mmHg 96%
    08:00 +21°C° 0.3 mm 1 mps 667 mmHg 93%
    09:00 +22°C° 0.3 mm 1 mps 667 mmHg 90%
    10:00 +23°C° 0.3 mm 1 mps 667 mmHg 87%
    11:00 +24°C° 1 mm 2 mps 667 mmHg 84%
    12:00 +25°C° 1 mm 2 mps 666 mmHg 81%
    13:00 +26°C° 1 mm 2 mps 666 mmHg 78%
    14:00 +26°C° 0.7 mm 2 mps 665 mmHg 80%
    15:00 +26°C° 0.7 mm 2 mps 665 mmHg 81%
    16:00 +25°C° 0.7 mm 2 mps 664 mmHg 82%
    17:00 +24°C° 1.1 mm 2 mps 664 mmHg 86%
    18:00 +23°C° 1.1 mm 2 mps 664 mmHg 90%
    19:00 +20°C° 1.1 mm 2 mps 665 mmHg 94%
    20:00 +20°C° 0.4 mm 2 mps 665 mmHg 95%
    21:00 +19°C° 0.4 mm 2 mps 665 mmHg 96%
    22:00 +20°C° 0.4 mm 1 mps 666 mmHg 97%
    23:00 +20°C° 0 mm 1 mps 666 mmHg 97%

    1 February, Saturday

    Time Temperature Precipitation Wind Pressure Humidity
    00:00 +20°C° 0 mm 1 mps 665 mmHg 97%
    01:00 +20°C° 0 mm 1 mps 665 mmHg 98%
    02:00 +20°C° 0 mm 1 mps 665 mmHg 98%
    03:00 +20°C° 0 mm 1 mps 665 mmHg 98%
    04:00 +20°C° 0 mm 1 mps 664 mmHg 99%
    05:00 +20°C° 0 mm 1 mps 665 mmHg 98%
    06:00 +20°C° 0 mm 1 mps 665 mmHg 98%
    07:00 +20°C° 0 mm 1 mps 666 mmHg 97%
    08:00 +21°C° 0 mm 2 mps 666 mmHg 90%
    09:00 +23°C° 0 mm 2 mps 666 mmHg 83%
    10:00 +25°C° 0 mm 2 mps 667 mmHg 76%
    11:00 +26°C° 0.1 mm 2 mps 666 mmHg 72%
    12:00 +27°C° 0.1 mm 3 mps 666 mmHg 67%
    13:00 +28°C° 0.1 mm 3 mps 666 mmHg 63%
    14:00 +27°C° 0.4 mm 3 mps 665 mmHg 66%
    15:00 +27°C° 0.4 mm 3 mps 664 mmHg 69%
    16:00 +26°C° 0.4 mm 3 mps 663 mmHg 73%
    17:00 +25°C° 0.2 mm 3 mps 664 mmHg 80%
    18:00 +23°C° 0.2 mm 2 mps 664 mmHg 87%
    19:00 +20°C° 0.2 mm 2 mps 664 mmHg 94%
    20:00 +20°C° 0 mm 2 mps 664 mmHg 95%
    21:00 +19°C° 0 mm 2 mps 665 mmHg 96%
    22:00 +20°C° 0 mm 1 mps 665 mmHg 97%
    23:00 +20°C° 0 mm 1 mps 665 mmHg 97%

    2 February, Sunday

    Time Temperature Precipitation Wind Pressure Humidity
    00:00 +20°C° 0 mm 1 mps 665 mmHg 97%
    01:00 +20°C° 0 mm 1 mps 665 mmHg 97%
    02:00 +19°C° 0 mm 2 mps 665 mmHg 97%
    03:00 +19°C° 0 mm 2 mps 665 mmHg 97%
    04:00 +19°C° 0 mm 2 mps 664 mmHg 97%
    05:00 +20°C° 0 mm 2 mps 665 mmHg 96%
    06:00 +20°C° 0 mm 2 mps 665 mmHg 96%
    07:00 +20°C° 0 mm 2 mps 666 mmHg 95%
    08:00 +21°C° 0 mm 2 mps 666 mmHg 90%
    09:00 +21°C° 0 mm 2 mps 666 mmHg 86%
    10:00 +22°C° 0 mm 3 mps 667 mmHg 81%
    11:00 +25°C° 0 mm 3 mps 667 mmHg 74%
    12:00 +26°C° 0 mm 3 mps 666 mmHg 66%
    13:00 +28°C° 0 mm 3 mps 666 mmHg 59%
    14:00 +27°C° 0 mm 3 mps 665 mmHg 62%
    15:00 +27°C° 0 mm 3 mps 665 mmHg 66%
    16:00 +26°C° 0 mm 3 mps 664 mmHg 70%
    17:00 +24°C° 0.2 mm 3 mps 664 mmHg 78%
    18:00 +23°C° 0.2 mm 2 mps 664 mmHg 86%
    19:00 +20°C° 0.2 mm 2 mps 664 mmHg 94%
    20:00 +20°C° 0 mm 2 mps 664 mmHg 95%
    21:00 +20°C° 0 mm 2 mps 665 mmHg 96%
    22:00 +19°C° 0 mm 2 mps 665 mmHg 97%
    23:00 +19°C° 0 mm 2 mps 665 mmHg 98%

    3 February, Monday

    Time Temperature Precipitation Wind Pressure Humidity
    00:00 +20°C° 0 mm 1 mps 665 mmHg 98%
    01:00 +19°C° 0 mm 1 mps 665 mmHg 99%
    02:00 +19°C° 0 mm 2 mps 664 mmHg 98%
    03:00 +19°C° 0 mm 2 mps 664 mmHg 98%
    04:00 +19°C° 0 mm 2 mps 664 mmHg 98%
    05:00 +19°C° 0 mm 2 mps 664 mmHg 97%
    06:00 +19°C° 0 mm 2 mps 665 mmHg 97%
    07:00 +19°C° 0 mm 2 mps 665 mmHg 97%
    08:00 +19°C° 0.1 mm 2 mps 665 mmHg 95%
    09:00 +19°C° 0.1 mm 2 mps 665 mmHg 94%
    10:00 +20°C° 0.1 mm 2 mps 665 mmHg 93%
    11:00 +21°C° 0.1 mm 3 mps 665 mmHg 90%
    12:00 +21°C° 0.1 mm 3 mps 665 mmHg 86%
    13:00 +22°C° 0.1 mm 3 mps 665 mmHg 83%
    14:00 +22°C° 0.1 mm 3 mps 664 mmHg 82%
    15:00 +22°C° 0.1 mm 3 mps 663 mmHg 81%
    16:00 +22°C° 0.1 mm 4 mps 663 mmHg 80%
    17:00 +21°C° 0 mm 3 mps 663 mmHg 84%
    18:00 +20°C° 0 mm 3 mps 663 mmHg 89%
    19:00 +19°C° 0 mm 2 mps 663 mmHg 93%
    20:00 +19°C° 0 mm 2 mps 664 mmHg 92%
    21:00 +19°C° 0 mm 2 mps 664 mmHg 91%
    22:00 +19°C° 0 mm 2 mps 665 mmHg 90%
    23:00 +19°C° 0 mm 2 mps 664 mmHg 90%
    Show more